R/V Knorr Calliope CSV data file  (Time stamps are GMT)
Date, Time_GMT, Depth12, Depth35, Air_Temp, WXT5_Ta, WXT5_Pa, dec_lat, dec_lon, GPS_COG, GPS_SOG, Gyro, IMET_BPR, IMET_SWR, WXT5_Ri, WXT5_Rc, HRH, WXT5_Ua, WXT5_Dm, WXT5_Sm, SBE45C, SBE45S, SBE45T, Salinity, SSCND, Fluorometer, SSTMP, SSV, Wnd_Dir, TWD5, Wnd_Spd, TWS5, HdChkSum=3E
2009/04/06, 18:39:22, , , 26.00, 26.10, 1008.6, -0.7507050, -90.2950420, 358.50, 0.41, 95.60, 1008.35, 994.00, 0.0, 177.75, 81.51, 76.8, 10, 3.5, 55.61900, 34.36220, 28.2892, 34.3622, 55.6190, 717.10, 26.7577, 1537.84, 111.40, 98.2, 2.71, 3.4, 3E
2009/04/06, 18:40:22, , , 26.00, 26.10, 1008.5, -0.7507020, -90.2950330, 115.20, 0.35, 95.20, 1008.35, 991.20, 0.0, 177.75, 81.68, 77.7, 13, 3.0, 55.61540, 34.36540, 28.2814, 34.3654, 55.6154, 717.70, 26.7613, 1537.85, 110.20, 103.1, 3.01, 3.2, 3E
2009/04/06, 18:41:22, , , 26.07, 26.10, 1008.5, -0.7506980, -90.2950270, 90.80, 0.18, 94.90, 1008.38, 992.60, 0.0, 177.75, 82.22, 77.6, 16, 3.5, 55.60670, 34.36840, 28.2690, 34.3684, 55.6067, 718.00, 26.7659, 1537.87, 120.60, 109.8, 2.60, 3.5, 3E
2009/04/06, 18:42:22, , , 26.02, 26.10, 1008.5, -0.7507000, -90.2950270, 172.60, 0.56, 94.90, 1008.36, 991.40, 0.0, 177.75, 82.14, 77.6, 11, 3.6, 55.59770, 34.36980, 28.2584, 34.3698, 55.5977, 718.40, 26.7690, 1537.88, 127.90, 108.1, 2.61, 3.6, 3E
2009/04/06, 18:43:22, , , 26.02, 26.10, 1008.5, -0.7506950, -90.2950250, 180.00, 0.19, 95.50, 1008.37, 991.60, 0.0, 177.75, 81.98, 77.5, 7, 3.3, 55.58700, 34.37190, 28.2453, 34.3719, 55.5870, 719.30, 26.7730, 1537.89, 116.30, 99.0, 2.83, 3.3, 3E
2009/04/06, 18:44:22, , , 26.03, 26.10, 1008.5, -0.7506930, -90.2950300, 250.30, 0.27, 96.20, 1008.30, 990.00, 0.0, 177.75, 81.79, 77.4, 7, 3.4, 55.57500, 34.37250, 28.2330, 34.3725, 55.5750, 719.00, 26.7770, 1537.90, 115.60, 100.3, 2.69, 3.4, 3E
2009/04/06, 18:45:23, , , 26.07, 26.10, 1008.4, -0.7506900, -90.2950350, 148.70, 0.33, 97.40, 1008.15, 992.60, 0.0, 177.75, 82.36, 77.5, 6, 3.3, 55.56440, 34.37190, 28.2237, 34.3719, 55.5644, 719.30, 26.7759, 1537.89, 111.60, 98.2, 2.91, 3.4, 3E
2009/04/06, 18:46:22, , , 26.04, 26.10, 1008.4, -0.7506930, -90.2950420, 183.20, 0.12, 99.10, 1008.16, 992.90, 0.0, 177.75, 82.08, 77.7, 2, 3.3, 55.55430, 34.36950, 28.2172, 34.3695, 55.5543, 719.30, 26.7675, 1537.87, 120.30, 101.0, 2.80, 3.3, 3E
2009/04/06, 18:47:22, , , 26.04, 26.10, 1008.4, -0.7506950, -90.2950450, 339.90, 0.51, 100.90, 1008.12, 992.30, 0.0, 177.75, 82.24, 77.8, 358, 3.2, 55.55270, 34.36610, 28.2204, 34.3661, 55.5527, 719.00, 26.7589, 1537.85, 116.30, 97.2, 2.70, 3.3, 3E
2009/04/06, 18:48:22, , , 26.05, 26.10, 1008.4, -0.7507030, -90.2950430, 27.00, 0.42, 101.40, 1008.22, 991.10, 0.0, 177.75, 82.50, 77.8, 0, 3.5, 55.55450, 34.36270, 28.2268, 34.3627, 55.5545, 718.70, 26.7510, 1537.83, 103.00, 96.4, 2.50, 3.5, 3E
2009/04/06, 18:49:22, , , 26.01, 26.10, 1008.4, -0.7507080, -90.2950470, 320.20, 0.04, 101.00, 1008.22, 992.10, 0.0, 177.75, 82.34, 77.6, 357, 3.5, 55.56440, 34.35970, 28.2404, 34.3597, 55.5644, 718.00, 26.7420, 1537.80, 107.50, 90.9, 2.62, 3.3, 3E
2009/04/06, 18:50:23, , , 26.06, 26.10, 1008.3, -0.7507170, -90.2950480, 210.70, 0.24, 100.50, 1008.15, 991.80, 0.0, 177.75, 82.21, 77.3, 358, 3.6, 55.57370, 34.35690, 28.2532, 34.3569, 55.5737, 717.70, 26.7337, 1537.78, 105.60, 90.9, 2.67, 3.7, 3E
2009/04/06, 18:51:23, , , 26.00, 26.10, 1008.3, -0.7507150, -90.2950470, 202.90, 0.29, 101.20, 1008.11, 993.90, 0.0, 177.75, 81.81, 77.1, 0, 3.7, 55.58650, 34.35460, 28.2686, 34.3546, 55.5865, 718.00, 26.7286, 1537.77, 98.60, 96.8, 2.87, 3.5, 3E
2009/04/06, 18:52:22, , , 26.00, 26.10, 1008.4, -0.7507200, -90.2950450, 129.50, 0.30, 101.30, 1008.05, 992.40, 0.0, 177.75, 81.66, 76.8, 3, 3.5, 55.60110, 34.35390, 28.2835, 34.3539, 55.6011, 718.00, 26.7252, 1537.76, 107.90, 101.4, 2.96, 3.6, 3E
2009/04/06, 18:53:23, , , 26.02, 26.10, 1008.4, -0.7507130, -90.2950470, 335.90, 0.44, 99.80, 1008.05, 992.00, 0.0, 177.75, 81.79, 77.3, 6, 3.4, 55.61580, 34.35480, 28.2963, 34.3548, 55.6158, 718.70, 26.7254, 1537.76, 104.10, 99.3, 2.95, 3.5, 3E
2009/04/06, 18:54:23, , , 26.07, 26.10, 1008.2, -0.7507180, -90.2950520, 202.30, 0.98, 98.20, 1008.00, 988.70, 0.0, 177.75, 81.79, 77.0, 1, 3.1, 55.62540, 34.35800, 28.3011, 34.3580, 55.6254, 719.80, 26.7310, 1537.78, 116.10, 101.7, 2.90, 3.2, 3E
2009/04/06, 18:55:22, , , 26.07, 26.20, 1008.3, -0.7507120, -90.2950520, 193.20, 0.37, 97.00, 1008.00, 988.10, 0.0, 177.75, 81.89, 77.0, 15, 3.4, 55.62810, 34.36060, 28.3001, 34.3606, 55.6281, 720.40, 26.7357, 1537.79, 113.00, 110.4, 2.65, 3.5, 3E
2009/04/06, 18:56:22, , , 26.04, 26.10, 1008.3, -0.7507000, -90.2950500, 306.90, 0.28, 95.50, 1008.07, 988.30, 0.0, 177.75, 81.66, 76.5, 10, 3.4, 55.62830, 34.36290, 28.2972, 34.3629, 55.6283, 720.80, 26.7410, 1537.81, 107.00, 96.3, 2.84, 3.6, 3E
2009/04/06, 18:57:22, , , 26.03, 26.10, 1008.3, -0.7506920, -90.2950450, 339.70, 0.42, 94.90, 1008.07, 987.10, 0.0, 177.75, 81.70, 76.3, 18, 3.2, 55.62350, 34.36530, 28.2894, 34.3653, 55.6235, 720.80, 26.7451, 1537.82, 117.10, 109.3, 2.74, 3.3, 3E
2009/04/06, 18:58:22, , , 26.04, 26.20, 1008.2, -0.7506880, -90.2950350, 177.90, 0.35, 96.10, 1008.05, 986.00, 0.0, 177.75, 81.37, 78.1, 8, 3.4, 55.61730, 34.36700, 28.2810, 34.3670, 55.6173, 721.40, 26.7493, 1537.83, 114.40, 95.5, 2.77, 3.5, 3E
2009/04/06, 18:59:22, , , 26.11, 26.20, 1008.2, -0.7506920, -90.2950230, 162.10, 0.34, 98.40, 1007.93, 986.40, 0.0, 177.75, 81.41, 77.0, 15, 3.3, 55.61290, 34.36850, 28.2747, 34.3685, 55.6129, 721.70, 26.7515, 1537.84, 117.90, 110.1, 2.51, 3.2, 3E
2009/04/06, 19:00:23, , , 26.05, 26.20, 1008.2, -0.7506800, -90.2950120, 76.10, 0.33, 100.30, 1007.96, 987.70, 0.0, 177.75, 81.48, 77.4, 11, 3.5, 55.60410, 34.36790, 28.2672, 34.3679, 55.6041, 722.00, 26.7525, 1537.84, 121.80, 108.5, 2.96, 3.6, 3E
2009/04/06, 19:01:22, , , 26.11, 26.20, 1008.2, -0.7506770, -90.2950080, 36.50, 0.21, 100.00, 1007.93, 985.40, 0.0, 177.75, 81.97, 78.5, 13, 3.2, 55.59930, 34.36620, 28.2650, 34.3662, 55.5993, 722.00, 26.7534, 1537.84, 119.20, 108.5, 2.72, 3.2, 3E
2009/04/06, 19:02:22, , , 26.23, 26.20, 1008.1, -0.7506720, -90.2950130, 45.00, 0.04, 97.70, 1007.97, 984.60, 0.0, 177.75, 82.79, 76.4, 9, 3.7, 55.59690, 34.36430, 28.2652, 34.3643, 55.5969, 723.00, 26.7521, 1537.83, 118.60, 100.9, 2.85, 3.8, 3E
2009/04/06, 19:03:23, , , 25.98, 26.10, 1008.2, -0.7506620, -90.2950250, 224.60, 0.50, 96.60, 1007.91, 982.80, 0.0, 177.75, 81.51, 76.7, 10, 3.9, 55.59820, 34.36250, 28.2689, 34.3625, 55.5982, 723.20, 26.7509, 1537.83, 124.20, 105.2, 3.09, 4.1, 3E
2009/04/06, 19:04:22, , , 26.00, 26.10, 1008.1, -0.7506600, -90.2950320, 200.80, 0.26, 98.40, 1007.90, 982.70, 0.0, 177.75, 81.63, 77.1, 8, 3.6, 55.60170, 34.36200, 28.2729, 34.3620, 55.6017, 723.50, 26.7521, 1537.83, 113.60, 105.8, 3.10, 3.7, 3E
2009/04/06, 19:05:23, , , 26.06, 26.10, 1008.0, -0.7506630, -90.2950380, 205.00, 0.74, 100.60, 1007.94, 983.70, 0.0, 177.75, 81.87, 77.2, 12, 3.9, 55.60650, 34.36160, 28.2781, 34.3616, 55.6065, 723.80, 26.7541, 1537.83, 117.80, 111.7, 3.16, 3.9, 3E
2009/04/06, 19:06:22, , , 26.03, 26.10, 1008.1, -0.7506580, -90.2950380, 254.90, 0.50, 101.80, 1007.86, 982.80, 0.0, 177.75, 81.36, 77.3, 10, 4.2, 55.61070, 34.36320, 28.2799, 34.3632, 55.6107, 723.80, 26.7542, 1537.84, 125.00, 114.0, 2.89, 3.7, 3E
2009/04/06, 19:07:22, , , 26.04, 26.10, 1008.1, -0.7506600, -90.2950400, 208.20, 1.09, 103.80, 1007.67, 982.60, 0.0, 177.75, 81.16, 77.0, 11, 3.9, 55.61180, 34.36440, 28.2793, 34.3644, 55.6118, 725.10, 26.7524, 1537.83, 128.20, 115.7, 3.42, 4.0, 3E
2009/04/06, 19:08:22, , , 26.12, 26.20, 1008.1, -0.7506520, -90.2950350, 349.10, 0.44, 105.60, 1007.81, 981.90, 0.0, 177.75, 82.07, 77.5, 1, 3.8, 55.61100, 34.36720, 28.2748, 34.3672, 55.6110, 725.10, 26.7510, 1537.83, 120.80, 101.6, 2.93, 3.6, 3E
2009/04/06, 19:09:22, , , 26.06, 26.20, 1008.1, -0.7506550, -90.2950330, 289.70, 0.40, 106.80, 1007.79, 979.80, 0.0, 177.75, 81.31, 77.3, 6, 4.3, 55.60510, 34.36910, 28.2665, 34.3691, 55.6051, 725.70, 26.7472, 1537.83, 116.70, 109.6, 2.99, 4.2, 3E
2009/04/06, 19:10:22, , , 26.06, 26.10, 1008.0, -0.7506530, -90.2950350, 213.90, 0.23, 105.90, 1007.85, 977.80, 0.0, 177.75, 81.22, 77.0, 359, 3.8, 55.59880, 34.37130, 28.2573, 34.3713, 55.5988, 726.20, 26.7403, 1537.81, 115.60, 102.4, 3.24, 3.7, 3E
2009/04/06, 19:11:22, , , 26.10, 26.10, 1008.0, -0.7506500, -90.2950300, 192.30, 0.43, 104.00, 1007.86, 976.80, 0.0, 177.75, 81.85, 77.0, 4, 3.8, 55.59050, 34.37270, 28.2475, 34.3727, 55.5905, 726.50, 26.7327, 1537.80, 111.10, 101.8, 3.39, 4.0, 3E
2009/04/06, 19:12:22, , , 26.07, 26.10, 1008.0, -0.7506530, -90.2950270, 189.50, 0.22, 101.70, 1007.79, 974.30, 0.0, 177.75, 81.20, 76.0, 4, 4.0, 55.57980, 34.37310, 28.2368, 34.3731, 55.5798, 727.20, 26.7290, 1537.79, 114.80, 103.6, 3.09, 4.0, 3E
2009/04/06, 19:13:22, , , 26.01, 26.10, 1007.9, -0.7506620, -90.2950200, 91.40, 0.15, 101.00, 1007.77, 973.40, 0.0, 177.75, 81.14, 76.2, 5, 3.5, 55.57180, 34.37280, 28.2296, 34.3728, 55.5718, 728.10, 26.7286, 1537.79, 109.60, 97.6, 3.21, 3.5, 3E
2009/04/06, 19:14:22, , , 26.07, 26.10, 1007.9, -0.7506630, -90.2950150, 114.40, 0.25, 101.30, 1007.61, 970.00, 0.0, 177.75, 81.27, 77.5, 6, 3.3, 55.56490, 34.37110, 28.2252, 34.3711, 55.5649, 728.80, 26.7291, 1537.79, 116.10, 104.7, 3.03, 3.3, 3E
2009/04/06, 19:15:23, , , 26.13, 26.20, 1007.9, -0.7506650, -90.2950150, 203.40, 0.31, 101.20, 1007.75, 969.20, 0.0, 177.75, 81.27, 77.4, 5, 3.1, 55.56090, 34.36950, 28.2236, 34.3695, 55.5609, 728.80, 26.7305, 1537.79, 123.20, 113.5, 2.78, 3.2, 3E
2009/04/06, 19:16:23, , , 26.18, 26.20, 1007.9, -0.7506750, -90.2950130, 198.60, 0.72, 101.20, 1007.72, 966.80, 0.0, 177.75, 82.02, 77.2, 356, 3.4, 55.56210, 34.36650, 28.2289, 34.3665, 55.5621, 729.60, 26.7329, 1537.79, 118.70, 100.7, 2.64, 3.5, 3E
2009/04/06, 19:17:22, , , 26.08, 26.20, 1007.9, -0.7506680, -90.2950170, 249.40, 0.06, 102.10, 1007.69, 965.50, 0.0, 177.75, 81.64, 77.3, 2, 4.3, 55.56680, 34.36500, 28.2354, 34.3650, 55.5668, 729.90, 26.7330, 1537.79, 105.40, 97.0, 2.85, 4.0, 3E
2009/04/06, 19:18:23, , , 26.07, 26.20, 1007.9, -0.7506630, -90.2950250, 339.80, 0.23, 102.70, 1007.66, 963.50, 0.0, 177.75, 81.68, 76.5, 5, 3.8, 55.57210, 34.36380, 28.2422, 34.3638, 55.5721, 730.50, 26.7327, 1537.79, 105.10, 100.8, 3.13, 3.7, 3E
2009/04/06, 19:19:23, , , 26.01, 26.10, 1007.9, -0.7506530, -90.2950320, 46.90, 0.34, 103.00, 1007.63, 963.40, 0.0, 177.75, 81.18, 76.2, 5, 3.7, 55.57800, 34.36320, 28.2486, 34.3632, 55.5780, 731.20, 26.7297, 1537.78, 119.90, 106.8, 3.34, 3.8, 3E
2009/04/06, 19:20:22, , , 26.06, 26.10, 1007.8, -0.7506580, -90.2950430, 213.00, 0.90, 103.30, 1007.65, 961.20, 0.0, 177.75, 81.24, 76.5, 5, 3.3, 55.58380, 34.36340, 28.2539, 34.3634, 55.5838, 731.20, 26.7294, 1537.78, 122.80, 112.2, 2.96, 3.1, 3E
2009/04/06, 19:21:22, , , 26.12, 26.20, 1007.7, -0.7506550, -90.2950370, 164.90, 0.15, 105.10, 1007.57, 959.50, 0.0, 177.75, 80.92, 76.3, 0, 3.8, 55.59020, 34.36430, 28.2588, 34.3643, 55.5902, 732.10, 26.7283, 1537.78, 118.90, 101.2, 2.83, 3.9, 3E
2009/04/06, 19:22:22, , , 26.08, 26.20, 1007.8, -0.7506570, -90.2950270, 71.70, 0.39, 106.40, 1007.61, 957.90, 0.0, 177.75, 80.41, 75.7, 7, 3.7, 55.59470, 34.36480, 28.2625, 34.3648, 55.5947, 732.80, 26.7278, 1537.78, 118.60, 111.0, 2.73, 3.5, 3E
2009/04/06, 19:23:22, , , 26.06, 26.20, 1007.8, -0.7506520, -90.2950150, 116.10, 0.55, 106.60, 1007.62, 956.00, 0.0, 177.75, 80.33, 77.0, 4, 3.0, 55.59850, 34.36580, 28.2647, 34.3658, 55.5985, 732.80, 26.7273, 1537.78, 115.50, 102.2, 3.20, 3.1, 3E
2009/04/06, 19:24:22, , , 26.18, 26.20, 1007.8, -0.7506470, -90.2950130, 26.20, 0.37, 105.80, 1007.51, 955.60, 0.0, 177.75, 80.90, 75.7, 7, 3.5, 55.59950, 34.36630, 28.2650, 34.3663, 55.5995, 733.90, 26.7272, 1537.78, 116.70, 107.9, 2.69, 3.5, 3E
2009/04/06, 19:25:23, , , 26.10, 26.20, 1007.8, -0.7506450, -90.2950120, 114.30, 0.24, 105.40, 1007.58, 952.10, 0.0, 177.75, 80.54, 76.1, 0, 3.5, 55.59980, 34.36620, 28.2653, 34.3662, 55.5998, 733.90, 26.7268, 1537.78, 123.20, 105.4, 2.82, 3.4, 3E
2009/04/06, 19:26:22, , , 26.09, 26.20, 1007.8, -0.7506430, -90.2950150, 208.60, 0.41, 106.20, 1007.69, 950.10, 0.0, 177.75, 80.34, 76.7, 11, 3.4, 55.59790, 34.36600, 28.2638, 34.3660, 55.5979, 734.20, 26.7267, 1537.78, 116.50, 115.9, 2.88, 3.5, 3E
2009/04/06, 19:27:22, , , 26.14, 26.20, 1007.8, -0.7506400, -90.2950170, 266.40, 0.35, 107.10, 1007.62, 948.70, 0.0, 177.75, 80.58, 77.6, 6, 3.5, 55.59870, 34.36580, 28.2650, 34.3658, 55.5987, 733.90, 26.7264, 1537.77, 124.80, 104.6, 2.57, 3.0, 3E
2009/04/06, 19:28:23, , , 26.23, 26.20, 1007.8, -0.7506380, -90.2950130, 283.00, 0.19, 108.20, 1007.64, 947.70, 0.0, 177.75, 80.95, 76.1, 3, 3.2, 55.60220, 34.36690, 28.2667, 34.3669, 55.6022, 733.90, 26.7264, 1537.78, 120.30, 103.8, 2.61, 2.9, 3E
2009/04/06, 19:29:23, , , 26.12, 26.20, 1007.8, -0.7506380, -90.2950080, 84.60, 0.13, 108.50, 1007.61, 946.40, 0.0, 177.75, 80.81, 76.8, 10, 3.4, 55.60350, 34.36800, 28.2665, 34.3680, 55.6035, 733.90, 26.7263, 1537.78, 119.50, 109.4, 2.54, 3.1, 3E
2009/04/06, 19:30:22, , , 26.17, 26.20, 1007.8, -0.7506420, -90.2950070, 199.80, 0.28, 108.40, 1007.56, 943.90, 0.0, 177.75, 80.99, 76.4, 2, 3.8, 55.60410, 34.37010, 28.2642, 34.3701, 55.6041, 733.60, 26.7257, 1537.78, 116.20, 103.7, 2.45, 3.9, 3E
2009/04/06, 19:31:22, , , 26.12, 26.20, 1007.7, -0.7506400, -90.2950070, 239.60, 0.49, 108.20, 1007.50, 942.40, 0.0, 177.75, 80.98, 76.5, 3, 4.0, 55.60310, 34.37220, 28.2602, 34.3722, 55.6031, 734.20, 26.7248, 1537.78, 118.80, 103.7, 3.26, 4.0, 3E
2009/04/06, 19:32:22, , , 26.12, 26.20, 1007.7, -0.7506420, -90.2950130, 183.80, 0.63, 107.60, 1007.59, 940.60, 0.0, 177.75, 80.85, 76.7, 8, 3.4, 55.59900, 34.37340, 28.2548, 34.3734, 55.5990, 734.50, 26.7251, 1537.78, 116.80, 113.0, 3.27, 3.5, 3E
2009/04/06, 19:33:23, , , 26.14, 26.20, 1007.8, -0.7506300, -90.2950150, 148.40, 0.16, 107.10, 1007.58, 939.30, 0.0, 177.75, 81.15, 77.0, 9, 3.2, 55.59280, 34.37390, 28.2480, 34.3739, 55.5928, 735.20, 26.7243, 1537.78, 120.90, 113.9, 2.92, 3.3, 3E
2009/04/06, 19:34:22, , , 26.20, 26.20, 1007.7, -0.7506270, -90.2950120, 3.10, 0.22, 106.40, 1007.46, 937.30, 0.0, 177.75, 81.91, 77.0, 1, 3.4, 55.58310, 34.37240, 28.2408, 34.3724, 55.5831, 735.20, 26.7226, 1537.77, 118.70, 101.5, 2.53, 3.4, 3E
2009/04/06, 19:35:22, , , 26.14, 26.20, 1007.7, -0.7506220, -90.2950030, 27.90, 0.85, 106.60, 1007.41, 936.50, 0.0, 177.75, 81.46, 77.4, 351, 3.7, 55.57880, 34.37070, 28.2390, 34.3707, 55.5788, 735.80, 26.7204, 1537.77, 111.30, 91.6, 2.75, 3.8, 3E
2009/04/06, 19:36:22, , , 26.09, 26.20, 1007.7, -0.7506230, -90.2949970, 351.60, 0.34, 108.70, 1007.32, 934.30, 0.0, 177.75, 81.06, 77.0, 0, 3.7, 55.57640, 34.36990, 28.2379, 34.3699, 55.5764, 736.30, 26.7180, 1537.76, 105.20, 100.7, 3.12, 3.9, 3E
2009/04/06, 19:37:22, , , 26.15, 26.20, 1007.7, -0.7506270, -90.2949970, 30.60, 0.46, 110.70, 1007.48, 930.40, 0.0, 177.75, 81.57, 76.2, 0, 3.6, 55.57740, 34.36890, 28.2402, 34.3689, 55.5774, 737.20, 26.7147, 1537.75, 117.10, 107.0, 2.99, 3.4, 3E
2009/04/06, 19:38:22, , , 26.09, 26.20, 1007.6, -0.7506220, -90.2949980, 28.50, 0.49, 111.20, 1007.49, 929.50, 0.0, 177.75, 81.09, 76.8, 356, 3.0, 55.57800, 34.36890, 28.2407, 34.3689, 55.5780, 737.90, 26.7094, 1537.74, 112.60, 98.6, 2.98, 3.2, 3E
2009/04/06, 19:39:22, , , 26.18, 26.20, 1007.6, -0.7506100, -90.2950070, 54.90, 0.45, 109.60, 1007.52, 927.10, 0.0, 177.75, 81.68, 75.7, 6, 4.1, 55.58040, 34.36960, 28.2421, 34.3696, 55.5804, 738.80, 26.7041, 1537.73, 112.10, 110.9, 2.78, 4.2, 3E
2009/04/06, 19:40:22, , , 26.05, 26.20, 1007.6, -0.7506030, -90.2950180, 198.30, 0.58, 107.50, 1007.44, 925.70, 0.0, 177.75, 80.65, 75.7, 5, 4.3, 55.58090, 34.37060, 28.2413, 34.3706, 55.5809, 738.50, 26.7027, 1537.73, 120.20, 110.2, 3.35, 4.3, 3E
2009/04/06, 19:41:22, , , 26.08, 26.20, 1007.6, -0.7505970, -90.2950180, 272.10, 0.30, 106.80, 1007.36, 924.30, 0.0, 177.75, 80.47, 76.0, 8, 3.7, 55.58010, 34.37080, 28.2401, 34.3708, 55.5801, 739.60, 26.7045, 1537.73, 116.40, 105.6, 3.57, 3.6, 3E
2009/04/06, 19:42:23, , , 26.17, 26.20, 1007.6, -0.7505930, -90.2950080, 335.90, 0.28, 106.80, 1007.41, 923.30, 0.0, 177.75, 80.74, 75.7, 19, 3.7, 55.57820, 34.37110, 28.2379, 34.3711, 55.5782, 739.60, 26.7053, 1537.73, 120.70, 118.1, 3.16, 3.9, 3E
2009/04/06, 19:43:23, , , 26.13, 26.20, 1007.6, -0.7505850, -90.2949930, 218.70, 0.46, 108.20, 1007.45, 921.40, 0.0, 177.75, 80.21, 76.0, 12, 3.7, 55.57800, 34.37100, 28.2379, 34.3710, 55.5780, 740.30, 26.7048, 1537.73, 136.70, 110.5, 3.55, 3.7, 3E
2009/04/06, 19:44:22, , , 26.20, 26.20, 1007.6, -0.7505800, -90.2949800, 67.30, 0.39, 109.90, 1007.33, 920.40, 0.0, 177.75, 80.69, 76.5, 14, 3.7, 55.57720, 34.37120, 28.2369, 34.3712, 55.5772, 742.20, 26.7037, 1537.73, 121.70, 112.3, 3.00, 3.6, 3E
2009/04/06, 19:45:22, , , 26.22, 26.30, 1007.5, -0.7505680, -90.2949730, 2.50, 0.38, 110.50, 1007.38, 916.60, 0.0, 177.75, 80.79, 76.7, 15, 3.9, 55.57290, 34.37110, 28.2329, 34.3711, 55.5729, 743.30, 26.7019, 1537.72, 130.40, 112.5, 2.92, 4.0, 3E
2009/04/06, 19:46:23, , , 26.22, 26.30, 1007.5, -0.7505630, -90.2949650, 72.80, 0.32, 111.60, 1007.43, 915.50, 0.0, 177.75, 80.85, 75.9, 1, 3.7, 55.57340, 34.37120, 28.2332, 34.3712, 55.5734, 743.30, 26.7003, 1537.72, 130.40, 110.4, 3.15, 3.8, 3E
2009/04/06, 19:47:22, , , 26.14, 26.30, 1007.6, -0.7505580, -90.2949570, 33.40, 0.53, 114.40, 1007.41, 912.80, 0.0, 177.75, 80.57, 76.6, 357, 3.9, 55.57400, 34.37190, 28.2328, 34.3719, 55.5740, 744.30, 26.6967, 1537.71, 122.60, 105.3, 3.06, 3.9, 3E
2009/04/06, 19:48:22, , , 26.16, 26.30, 1007.5, -0.7505620, -90.2949500, 188.30, 0.44, 117.60, 1007.38, 909.70, 0.0, 177.75, 80.78, 77.0, 13, 3.7, 55.57180, 34.37190, 28.2307, 34.3719, 55.5718, 744.30, 26.6930, 1537.70, 123.20, 128.6, 3.04, 3.8, 3E
2009/04/06, 19:49:22, , , 26.20, 26.30, 1007.6, -0.7505500, -90.2949470, 49.20, 0.22, 118.00, 1007.35, 904.20, 0.0, 177.75, 81.05, 77.5, 2, 3.8, 55.57110, 34.37220, 28.2296, 34.3722, 55.5711, 744.00, 26.6881, 1537.69, 132.70, 114.3, 2.85, 3.8, 3E
2009/04/06, 19:50:22, , , 26.19, 26.20, 1007.6, -0.7505430, -90.2949470, 161.60, 0.10, 117.60, 1007.32, 903.40, 0.0, 177.75, 81.15, 77.3, 2, 3.4, 55.57210, 34.37240, 28.2304, 34.3724, 55.5721, 745.60, 26.6837, 1537.68, 133.90, 117.1, 3.11, 3.4, 3E
2009/04/06, 19:51:22, , , 26.18, 26.30, 1007.6, -0.7505270, -90.2949470, 235.00, 0.23, 116.70, 1007.25, 900.70, 0.0, 177.75, 81.35, 77.2, 3, 3.7, 55.57160, 34.37350, 28.2283, 34.3735, 55.5716, 745.20, 26.6783, 1537.67, 128.80, 119.5, 3.04, 3.8, 3E
2009/04/06, 19:52:22, , , 26.22, 26.30, 1007.5, -0.7505130, -90.2949430, 108.00, 0.19, 116.30, 1007.28, 898.20, 0.0, 177.75, 81.94, 77.8, 11, 4.0, 55.56810, 34.37370, 28.2247, 34.3737, 55.5681, 744.90, 26.6737, 1537.66, 129.80, 126.0, 2.84, 4.0, 3E
2009/04/06, 19:53:22, , , 26.18, 26.20, 1007.5, -0.7505120, -90.2949350, 96.10, 0.38, 117.40, 1007.31, 896.80, 0.0, 177.75, 81.33, 76.2, 17, 3.9, 55.56760, 34.37420, 28.2235, 34.3742, 55.5676, 745.60, 26.6711, 1537.66, 131.90, 126.4, 3.15, 3.9, 3E
2009/04/06, 19:54:22, , , 26.10, 26.20, 1007.5, -0.7505000, -90.2949170, 67.70, 0.37, 118.80, 1007.30, 891.30, 0.0, 177.75, 81.21, 76.5, 16, 3.6, 55.56600, 34.37370, 28.2227, 34.3737, 55.5660, 745.90, 26.6681, 1537.65, 145.30, 133.2, 3.47, 3.6, 3E
2009/04/06, 19:55:22, , , 26.13, 26.20, 1007.5, -0.7504970, -90.2949020, 53.80, 0.06, 120.80, 1007.31, 890.10, 0.0, 177.75, 81.06, 76.6, 17, 3.5, 55.56400, 34.37390, 28.2206, 34.3739, 55.5640, 745.90, 26.6663, 1537.65, 145.90, 132.3, 3.06, 3.6, 3E
2009/04/06, 19:56:22, , , 26.18, 26.20, 1007.5, -0.7504920, -90.2948920, 230.90, 0.47, 121.60, 1007.28, 887.70, 0.0, 177.75, 81.36, 77.0, 351, 3.7, 55.56550, 34.37460, 28.2209, 34.3746, 55.5655, 746.70, 26.6608, 1537.63, 149.80, 123.5, 2.98, 3.8, 3E
2009/04/06, 19:57:22, , , 26.29, 26.30, 1007.4, -0.7504870, -90.2948870, 69.20, 0.14, 122.00, 1007.27, 886.20, 0.0, 177.75, 82.43, 77.7, 348, 2.6, 55.56410, 34.37580, 28.2180, 34.3758, 55.5641, 748.00, 26.6564, 1537.62, 130.70, 116.3, 3.14, 2.9, 3E
2009/04/06, 19:58:22, , , 26.22, 26.30, 1007.5, -0.7504870, -90.2948880, 261.30, 0.49, 124.40, 1007.28, 881.10, 0.0, 177.75, 81.67, 77.5, 358, 3.1, 55.56310, 34.37710, 28.2151, 34.3771, 55.5631, 745.60, 26.6500, 1537.61, 128.80, 115.0, 2.43, 3.2, 3E
2009/04/06, 19:59:22, , , 26.22, 26.30, 1007.5, -0.7504830, -90.2948820, 267.30, 0.24, 127.60, 1007.35, 877.30, 0.0, 177.75, 82.09, 77.3, 7, 3.0, 55.56190, 34.37840, 28.2123, 34.3784, 55.5619, 746.00, 26.6435, 1537.60, 127.40, 132.2, 2.43, 3.0, 3E
2009/04/06, 20:00:22, , , 26.14, 26.30, 1007.5, -0.7504780, -90.2948820, 223.40, 0.10, 129.30, 1007.30, 872.80, 0.0, 177.75, 81.79, 77.6, 6, 3.4, 55.55770, 34.37910, 28.2074, 34.3791, 55.5577, 747.00, 26.6372, 1537.58, 142.80, 131.8, 2.24, 3.3, 3E
2009/04/06, 20:01:22, , , 26.17, 26.30, 1007.5, -0.7504650, -90.2948820, 309.20, 0.69, 129.00, 1007.34, 871.50, 0.0, 177.75, 81.86, 77.7, 6, 3.4, 55.55350, 34.37960, 28.2026, 34.3796, 55.5535, 747.60, 26.6326, 1537.57, 140.30, 129.1, 2.71, 3.4, 3E
2009/04/06, 20:02:22, , , 26.18, 26.30, 1007.5, -0.7504530, -90.2948780, 39.10, 0.35, 127.90, 1007.22, 869.30, 0.0, 177.75, 82.10, 78.4, 359, 3.6, 55.54920, 34.37850, 28.2000, 34.3785, 55.5492, 748.90, 26.6297, 1537.57, 139.30, 120.6, 2.71, 3.6, 3E
2009/04/06, 20:03:22, , , 26.28, 26.30, 1007.4, -0.7504450, -90.2948730, 58.00, 0.31, 129.10, 1007.29, 867.80, 0.0, 177.75, 82.72, 78.5, 0, 3.4, 55.54710, 34.37750, 28.1993, 34.3775, 55.5471, 748.60, 26.6273, 1537.56, 130.50, 124.6, 2.85, 3.4, 3E
2009/04/06, 20:04:22, , , 26.27, 26.30, 1007.4, -0.7504520, -90.2948680, 38.80, 0.13, 131.50, 1007.15, 865.90, 0.0, 177.75, 82.80, 77.7, 3, 3.3, 55.54630, 34.37660, 28.1998, 34.3766, 55.5463, 748.90, 26.6244, 1537.55, 132.00, 125.2, 2.48, 3.2, 3E
2009/04/06, 20:05:22, , , 26.16, 26.30, 1007.4, -0.7504550, -90.2948600, 79.60, 0.53, 134.10, 1007.09, 861.60, 0.0, 177.75, 82.40, 77.7, 356, 3.4, 55.54440, 34.37670, 28.1978, 34.3767, 55.5444, 749.70, 26.6219, 1537.55, 137.20, 122.7, 2.63, 3.5, 3E
2009/04/06, 20:06:23, , , 26.13, 26.20, 1007.4, -0.7504580, -90.2948650, 284.00, 0.30, 134.70, 1007.12, 860.00, 0.0, 177.75, 82.00, 77.4, 351, 3.3, 55.54440, 34.37660, 28.1981, 34.3766, 55.5444, 750.70, 26.6201, 1537.54, 140.50, 124.1, 2.44, 3.1, 3E
2009/04/06, 20:07:22, , , 26.13, 26.20, 1007.3, -0.7504550, -90.2948680, 262.50, 0.15, 134.60, 1007.14, 856.80, 0.0, 177.75, 82.01, 78.0, 338, 3.3, 55.54360, 34.37700, 28.1967, 34.3770, 55.5436, 751.60, 26.6209, 1537.54, 130.30, 108.0, 2.68, 3.5, 3E
2009/04/06, 20:08:22, , , 26.20, 26.30, 1007.3, -0.7504580, -90.2948680, 189.70, 0.37, 135.30, 1007.05, 853.60, 0.0, 177.75, 82.18, 77.3, 344, 3.3, 55.54200, 34.37810, 28.1937, 34.3781, 55.5420, 752.30, 26.6217, 1537.55, 123.40, 121.5, 2.68, 3.3, 3E
2009/04/06, 20:09:22, , , 26.20, 26.30, 1007.3, -0.7504520, -90.2948830, 260.70, 0.65, 134.30, 1007.19, 827.80, 0.0, 177.75, 82.68, 78.5, 346, 3.4, 55.54200, 34.37900, 28.1924, 34.3790, 55.5420, 752.60, 26.6227, 1537.55, 123.30, 117.4, 2.58, 3.3, 3E
2009/04/06, 20:10:23, , , 26.20, 26.30, 1007.3, -0.7504520, -90.2948930, 207.50, 0.36, 132.30, 1006.99, 822.40, 0.0, 177.75, 82.26, 75.7, 337, 3.7, 55.53770, 34.37950, 28.1876, 34.3795, 55.5377, 752.80, 26.6225, 1537.55, 122.10, 111.1, 2.55, 3.2, 3E
2009/04/06, 20:11:23, , , 26.04, 26.30, 1007.3, -0.7504600, -90.2949000, 34.10, 0.33, 133.20, 1007.20, 787.70, 0.0, 177.75, 81.24, 75.2, 335, 3.4, 55.53570, 34.38100, 28.1836, 34.3810, 55.5357, 752.60, 26.6222, 1537.55, 107.00, 100.7, 2.75, 3.4, 3E
2009/04/06, 20:12:23, , , 26.06, 26.30, 1007.2, -0.7504880, -90.2949030, 234.40, 0.52, 136.00, 1007.06, 719.90, 0.0, 177.75, 81.06, 76.3, 334, 3.4, 55.52950, 34.38180, 28.1766, 34.3818, 55.5295, 753.40, 26.6219, 1537.55, 114.80, 108.8, 2.71, 3.2, 3E
2009/04/06, 20:13:22, , , 26.14, 26.30, 1007.2, -0.7505170, -90.2949030, 221.90, 0.38, 137.20, 1006.99, 760.90, 0.0, 177.75, 81.03, 78.3, 348, 3.7, 55.52340, 34.38210, 28.1704, 34.3821, 55.5234, 753.40, 26.6212, 1537.55, 114.90, 124.5, 2.72, 3.7, 3E